Location: Kuffner-Sternwarte
(48.2130°N, 16.2960°E)
Time: 21:04:35
(UTC+02:00)

COROT - Pass Details

Date: 21 May 2018
Orbit: 602 x 886 km, 90.0° (Epoch: 16 October)

Event Time Altitude Azimuth Distance (km) Brightness Sun altitude
Rises 21:43:33 0° 3° (N) 3,025 9.8 -9.7°
Reaches altitude 10° 21:45:44 10° 6° (N) 2,145 8.9 -9.9°
Maximum altitude 21:50:29 70° 91° (E) 775 5.9 -10.4°
Drops below altitude 10° 21:55:36 10° 175° (S) 2,311 8.0 -11.0°
Enters shadow 21:56:03 - 176° (S) 2,492 8.2 -11.1°
